Location: Limoges
(45.8500°N, 1.2500°E)
Time: 01:06:59
(UTC+01:00)

ISS - Pass Details

Date: 04 December 2020
Orbit: 418 x 419 km, 51.6° (Epoch: 17 January)

Event Time Altitude Azimuth Distance (km) Brightness Sun altitude
Rises 19:44:48 0° 296° (WNW) 2,367 0.9 -26.0°
Reaches altitude 10° 19:46:55 10° 292° (WNW) 1,501 -0.2 -26.3°
Enters shadow 19:48:32 25° 281° (W) 886 -1.5 -26.6°
